| time (UTC) | temp F | wind direction | speed MPH | gust MPH | rain 1hr in | rain 24hr in | rain mn in | humidity % | barometer mb |
| 20260505225821 | 80 | 184 | 1.0 | 8.0 | 0.00 | 0.00 | 0.00 | 40 | 1006.6 |
| 20260505225045 | 80 | 240 | 1.0 | 6.0 | 0.00 | 0.00 | 0.00 | 41 | 1006.6 |
| 20260505224539 | 80 | 231 | 0.0 | 5.0 | 0.00 | 0.00 | 0.00 | 41 | 1006.6 |
| 20260505224028 | 80 | 159 | 0.0 | 6.0 | 0.00 | 0.00 | 0.00 | 41 | 1006.6 |
| 20260505223527 | 80 | 186 | 0.0 | 8.0 | 0.00 | 0.00 | 0.00 | 41 | 1006.6 |
| 20260505223020 | 81 | 256 | 1.0 | 11.0 | 0.00 | 0.00 | 0.00 | 42 | 1006.7 |
| 20260505222515 | 81 | 221 | 1.0 | 11.0 | 0.00 | 0.00 | 0.00 | 40 | 1006.7 |
| 20260505222004 | 82 | 229 | 2.0 | 16.0 | 0.00 | 0.00 | 0.00 | 40 | 1006.8 |
| 20260505221730 | 82 | 250 | 2.0 | 16.0 | 0.00 | 0.00 | 0.00 | 41 | 1006.8 |
| 20260505220957 | 82 | 213 | 1.0 | 7.0 | 0.00 | 0.00 | 0.00 | 41 | 1006.8 |
| 20260505220451 | 81 | 209 | 1.0 | 9.0 | 0.00 | 0.00 | 0.00 | 42 | 1006.7 |
| 20260505215944 | 81 | 212 | 1.0 | 10.0 | 0.00 | 0.00 | 0.00 | 41 | 1006.7 |
| 20260505215439 | 81 | 172 | 1.0 | 10.0 | 0.00 | 0.00 | 0.00 | 41 | 1006.6 |
| 20260505214932 | 81 | 199 | 1.0 | 10.0 | 0.00 | 0.00 | 0.00 | 41 | 1006.7 |
| 20260505214427 | 81 | 207 | 2.0 | 10.0 | 0.00 | 0.00 | 0.00 | 41 | 1006.8 |
| 20260505213916 | 81 | 248 | 3.0 | 9.0 | 0.00 | 0.00 | 0.00 | 41 | 1006.7 |
| 20260505213415 | 82 | 209 | 2.0 | 10.0 | 0.00 | 0.00 | 0.00 | 40 | 1006.7 |
| 20260505213135 | 83 | 173 | 1.0 | 10.0 | 0.00 | 0.00 | 0.00 | 41 | 1006.7 |
| 20260505212403 | 83 | 199 | 1.0 | 5.0 | 0.00 | 0.00 | 0.00 | 41 | 1006.6 |
| 20260505211857 | 83 | 232 | 1.0 | 12.0 | 0.00 | 0.00 | 0.00 | 40 | 1006.6 |
| 20260505211344 | 83 | 244 | 3.0 | 18.0 | 0.00 | 0.00 | 0.00 | 40 | 1006.6 |
| 20260505210844 | 82 | 243 | 3.0 | 18.0 | 0.00 | 0.00 | 0.00 | 40 | 1006.5 |
| 20260505210339 | 83 | 215 | 2.0 | 11.0 | 0.00 | 0.00 | 0.00 | 39 | 1006.6 |
| 20260505205833 | 83 | 260 | 2.0 | 11.0 | 0.00 | 0.00 | 0.00 | 40 | 1006.7 |
| 20260505205326 | 83 | 210 | 3.0 | 17.0 | 0.00 | 0.00 | 0.00 | 42 | 1006.6 |
| 20260505204820 | 82 | 234 | 4.0 | 17.0 | 0.00 | 0.00 | 0.00 | 40 | 1006.6 |
| 20260505204314 | 82 | 246 | 3.0 | 13.0 | 0.00 | 0.00 | 0.00 | 39 | 1006.5 |
| 20260505203805 | 83 | 232 | 1.0 | 11.0 | 0.00 | 0.00 | 0.00 | 39 | 1006.7 |
| 20260505203303 | 83 | 205 | 2.0 | 10.0 | 0.00 | 0.00 | 0.00 | 40 | 1006.6 |
| 20260505202757 | 82 | 189 | 2.0 | 11.0 | 0.00 | 0.00 | 0.00 | 42 | 1006.5 |
| 20260505202522 | 82 | 178 | 2.0 | 11.0 | 0.00 | 0.00 | 0.00 | 43 | 1006.6 |
| 20260505201745 | 82 | 190 | 2.0 | 13.0 | 0.00 | 0.00 | 0.00 | 42 | 1006.8 |
| 20260505201234 | 82 | 157 | 2.0 | 13.0 | 0.00 | 0.00 | 0.00 | 42 | 1006.8 |
| 20260505200732 | 82 | 240 | 2.0 | 12.0 | 0.00 | 0.00 | 0.00 | 42 | 1006.7 |
| 20260505200227 | 82 | 258 | 2.0 | 12.0 | 0.00 | 0.00 | 0.00 | 42 | 1006.8 |
| 20260505195726 | 82 | 244 | 2.0 | 13.0 | 0.00 | 0.00 | 0.00 | 42 | 1007.0 |
| 20260505195720 | 82 | 242 | 2.0 | 13.0 | 0.00 | 0.00 | 0.00 | 43 | 1007.0 |
| 20260505194704 | 82 | 183 | 2.0 | 14.0 | 0.00 | 0.00 | 0.00 | 41 | 1007.0 |
| 20260505194203 | 82 | 250 | 2.0 | 14.0 | 0.00 | 0.00 | 0.00 | 43 | 1007.0 |
| 20260505193652 | 82 | 190 | 2.0 | 9.0 | 0.00 | 0.00 | 0.00 | 43 | 1007.0 |
| 20260505193156 | 82 | 209 | 1.0 | 14.0 | 0.00 | 0.00 | 0.00 | 42 | 1007.1 |
| 20260505193150 | 82 | 215 | 2.0 | 11.0 | 0.00 | 0.00 | 0.00 | 42 | 1007.1 |
| 20260505192138 | 82 | 186 | 1.0 | 14.0 | 0.00 | 0.00 | 0.00 | 44 | 1007.2 |
| 20260505191633 | 82 | 216 | 2.0 | 14.0 | 0.00 | 0.00 | 0.00 | 43 | 1007.2 |
| 20260505191122 | 82 | 242 | 3.0 | 11.0 | 0.00 | 0.00 | 0.00 | 42 | 1007.3 |
| 20260505190620 | 82 | 195 | 3.0 | 12.0 | 0.00 | 0.00 | 0.00 | 42 | 1007.3 |
| 20260505190110 | 82 | 261 | 1.0 | 12.0 | 0.00 | 0.00 | 0.00 | 42 | 1007.4 |
| 20260505185604 | 82 | 248 | 2.0 | 14.0 | 0.00 | 0.00 | 0.00 | 44 | 1007.4 |
| 20260505185333 | 82 | 250 | 2.0 | 14.0 | 0.00 | 0.00 | 0.00 | 41 | 1007.6 |
| 20260505184828 | 82 | 234 | 2.0 | 12.0 | 0.00 | 0.00 | 0.00 | 43 | 1007.7 |
| 20260505184050 | 82 | 248 | 2.0 | 12.0 | 0.00 | 0.00 | 0.00 | 44 | 1007.7 |
| 20260505183541 | 81 | 205 | 3.0 | 12.0 | 0.00 | 0.00 | 0.00 | 44 | 1007.7 |
| 20260505183039 | 81 | 273 | 3.0 | 12.0 | 0.00 | 0.00 | 0.00 | 44 | 1007.7 |
| 20260505182533 | 81 | 287 | 1.0 | 8.0 | 0.00 | 0.00 | 0.00 | 45 | 1007.7 |
| 20260505182027 | 81 | 217 | 2.0 | 11.0 | 0.00 | 0.00 | 0.00 | 46 | 1007.8 |
| 20260505181521 | 81 | 246 | 2.0 | 11.0 | 0.00 | 0.00 | 0.00 | 44 | 1007.8 |
| 20260505181010 | 81 | 209 | 3.0 | 13.0 | 0.00 | 0.00 | 0.00 | 44 | 1007.9 |
| 20260505180504 | 81 | 246 | 3.0 | 13.0 | 0.00 | 0.00 | 0.00 | 45 | 1008.0 |
| 20260505175955 | 81 | 198 | 2.0 | 14.0 | 0.00 | 0.00 | 0.00 | 46 | 1008.0 |
| 20260505175457 | 81 | 241 | 3.0 | 14.0 | 0.00 | 0.00 | 0.00 | 45 | 1008.0 |
| 20260505174951 | 81 | 251 | 2.0 | 11.0 | 0.00 | 0.00 | 0.00 | 45 | 1008.1 |
| 20260505174444 | 81 | 193 | 2.0 | 16.0 | 0.00 | 0.00 | 0.00 | 47 | 1008.0 |
| 20260505173939 | 81 | 178 | 3.0 | 16.0 | 0.00 | 0.00 | 0.00 | 46 | 1008.1 |
| 20260505173428 | 81 | 242 | 2.0 | 10.0 | 0.00 | 0.00 | 0.00 | 46 | 1008.1 |
| 20260505172926 | 81 | 186 | 1.0 | 10.0 | 0.00 | 0.00 | 0.00 | 45 | 1008.1 |
| 20260505172420 | 80 | 240 | 2.0 | 13.0 | 0.00 | 0.00 | 0.00 | 48 | 1008.2 |
| 20260505172146 | 80 | 211 | 3.0 | 13.0 | 0.00 | 0.00 | 0.00 | 47 | 1008.4 |
| 20260505171404 | 80 | 232 | 2.0 | 11.0 | 0.00 | 0.00 | 0.00 | 50 | 1008.2 |
| 20260505170858 | 80 | 245 | 2.0 | 11.0 | 0.00 | 0.00 | 0.00 | 52 | 1008.4 |
| 20260505170357 | 80 | 262 | 2.0 | 10.0 | 0.00 | 0.00 | 0.00 | 49 | 1008.5 |
| 20260505165850 | 80 | 215 | 2.0 | 11.0 | 0.00 | 0.00 | 0.00 | 50 | 1008.6 |
| 20260505165345 | 80 | 242 | 3.0 | 16.0 | 0.00 | 0.00 | 0.00 | 47 | 1008.7 |
| 20260505164839 | 79 | 258 | 4.0 | 16.0 | 0.00 | 0.00 | 0.00 | 50 | 1008.8 |
| 20260505164328 | 79 | 248 | 3.0 | 11.0 | 0.00 | 0.00 | 0.00 | 48 | 1008.7 |
| 20260505163827 | 79 | 249 | 4.0 | 15.0 | 0.00 | 0.00 | 0.00 | 51 | 1008.9 |
| 20260505163321 | 79 | 251 | 3.0 | 15.0 | 0.00 | 0.00 | 0.00 | 50 | 1009.0 |
| 20260505162814 | 79 | 248 | 2.0 | 14.0 | 0.00 | 0.00 | 0.00 | 51 | 1009.0 |
| 20260505162306 | 79 | 257 | 3.0 | 14.0 | 0.00 | 0.00 | 0.00 | 49 | 1009.1 |
| 20260505161803 | 79 | 246 | 3.0 | 14.0 | 0.00 | 0.00 | 0.00 | 50 | 1009.1 |
| 20260505161256 | 79 | 244 | 2.0 | 10.0 | 0.00 | 0.00 | 0.00 | 50 | 1009.2 |
| 20260505160747 | 79 | 260 | 3.0 | 11.0 | 0.00 | 0.00 | 0.00 | 50 | 1009.1 |
| 20260505160245 | 78 | 240 | 2.0 | 11.0 | 0.00 | 0.00 | 0.00 | 51 | 1009.1 |
| 20260505153204 | 77 | 258 | 3.0 | 13.0 | 0.00 | 0.00 | 0.00 | 52 | 1009.2 |
| 20260505152703 | 77 | 248 | 2.0 | 13.0 | 0.00 | 0.00 | 0.00 | 52 | 1009.1 |
| 20260505152156 | 77 | 194 | 1.0 | 7.0 | 0.00 | 0.00 | 0.00 | 53 | 1009.1 |
| 20260505151650 | 77 | 240 | 1.0 | 8.0 | 0.00 | 0.00 | 0.00 | 52 | 1009.2 |
| 20260505151415 | 76 | 240 | 1.0 | 8.0 | 0.00 | 0.00 | 0.00 | 53 | 1009.3 |
| 20260505150906 | 76 | 200 | 1.0 | 12.0 | 0.00 | 0.00 | 0.00 | 55 | 1009.2 |
| 20260505150132 | 76 | 248 | 1.0 | 12.0 | 0.00 | 0.00 | 0.00 | 56 | 1009.2 |
| 20260505124350 | 67 | 122 | 0.0 | 3.0 | 0.00 | 0.00 | 0.00 | 70 | 1010.4 |
| 20260505123838 | 66 | 118 | 0.0 | 0.0 | 0.00 | 0.00 | 0.00 | 71 | 1010.3 |
| 20260505123338 | 66 | 118 | 0.0 | 0.0 | 0.00 | 0.00 | 0.00 | 73 | 1010.4 |
| 20260505122833 | 65 | 118 | 0.0 | 0.0 | 0.00 | 0.00 | 0.00 | 72 | 1010.4 |
| 20260505122326 | 65 | 118 | 0.0 | 1.0 | 0.00 | 0.00 | 0.00 | 73 | 1010.3 |
| 20260505121820 | 64 | 118 | 0.0 | 1.0 | 0.00 | 0.00 | 0.00 | 73 | 1010.3 |
| 20260505121314 | 64 | 117 | 0.0 | 0.0 | 0.00 | 0.00 | 0.00 | 74 | 1010.3 |
| 20260505120805 | 63 | 117 | 0.0 | 0.0 | 0.00 | 0.00 | 0.00 | 75 | 1010.2 |
| 20260505120256 | 63 | 117 | 0.0 | 2.0 | 0.00 | 0.00 | 0.00 | 76 | 1010.2 |
| 20260505115757 | 62 | 117 | 0.0 | 2.0 | 0.00 | 0.00 | 0.00 | 77 | 1010.1 |
| 20260505115251 | 62 | 117 | 0.0 | 0.0 | 0.00 | 0.00 | 0.00 | 78 | 1010.0 |
| 20260505114744 | 61 | 117 | 0.0 | 0.0 | 0.00 | 0.00 | 0.00 | 79 | 1010.0 |
| 20260505114238 | 60 | 117 | 0.0 | 0.0 | 0.00 | 0.00 | 0.00 | 80 | 1010.0 |
| 20260505113725 | 59 | 117 | 0.0 | 0.0 | 0.00 | 0.00 | 0.00 | 84 | 1010.0 |
| 20260505113226 | 58 | 117 | 0.0 | 0.0 | 0.00 | 0.00 | 0.00 | 84 | 1009.8 |
| 20260505112720 | 58 | 117 | 0.0 | 0.0 | 0.00 | 0.00 | 0.00 | 84 | 1009.8 |
| 20260505112214 | 58 | 117 | 0.0 | 0.0 | 0.00 | 0.00 | 0.00 | 83 | 1009.8 |
| 20260505111708 | 58 | 117 | 0.0 | 0.0 | 0.00 | 0.00 | 0.00 | 82 | 1009.8 |
| 20260505111154 | 58 | 117 | 0.0 | 0.0 | 0.00 | 0.00 | 0.00 | 82 | 1009.8 |
| 20260505110654 | 58 | 117 | 0.0 | 0.0 | 0.00 | 0.00 | 0.00 | 82 | 1009.9 |
| 20260505110419 | 58 | 117 | 0.0 | 0.0 | 0.00 | 0.00 | 0.00 | 81 | 1009.9 |
| 20260505102043 | 55 | 117 | 0.0 | 0.0 | 0.00 | 0.00 | 0.00 | 85 | 1009.3 |
| 20260505101541 | 54 | 117 | 0.0 | 0.0 | 0.00 | 0.00 | 0.00 | 86 | 1009.2 |
| 20260505101039 | 54 | 117 | 0.0 | 0.0 | 0.00 | 0.00 | 0.00 | 86 | 1009.1 |
| 20260505100812 | 54 | 117 | 0.0 | 0.0 | 0.00 | 0.00 | 0.00 | 86 | 1009.1 |
| 20260505100039 | 54 | 117 | 0.0 | 0.0 | 0.00 | 0.00 | 0.00 | 86 | 1009.2 |
| 20260505095811 | 54 | 117 | 0.0 | 0.0 | 0.00 | 0.00 | 0.00 | 85 | 1009.2 |
| 20260505095039 | 55 | 117 | 0.0 | 0.0 | 0.00 | 0.00 | 0.00 | 84 | 1009.2 |
| 20260505094541 | 55 | 117 | 0.0 | 0.0 | 0.00 | 0.00 | 0.00 | 84 | 1009.1 |
| 20260505094313 | 55 | 117 | 0.0 | 0.0 | 0.00 | 0.00 | 0.00 | 83 | 1009.3 |
| 20260505093536 | 56 | 117 | 0.0 | 0.0 | 0.00 | 0.00 | 0.00 | 83 | 1009.2 |
| 20260505093255 | 56 | 117 | 0.0 | 0.0 | 0.00 | 0.00 | 0.00 | 83 | 1009.2 |
| 20260505092512 | 56 | 117 | 0.0 | 0.0 | 0.00 | 0.00 | 0.00 | 83 | 1009.1 |
| 20260505092000 | 55 | 117 | 0.0 | 0.0 | 0.00 | 0.00 | 0.00 | 83 | 1009.1 |
| 20260505091719 | 56 | 117 | 0.0 | 0.0 | 0.00 | 0.00 | 0.00 | 83 | 1009.2 |
| 20260505090936 | 56 | 117 | 0.0 | 0.0 | 0.00 | 0.00 | 0.00 | 82 | 1008.9 |
| 20260505090436 | 56 | 117 | 0.0 | 0.0 | 0.00 | 0.00 | 0.00 | 82 | 1008.8 |
| 20260505085935 | 56 | 117 | 0.0 | 0.0 | 0.00 | 0.00 | 0.00 | 81 | 1008.8 |
| 20260505085436 | 56 | 117 | 0.0 | 0.0 | 0.00 | 0.00 | 0.00 | 80 | 1009.0 |
| 20260505084936 | 57 | 117 | 0.0 | 0.0 | 0.00 | 0.00 | 0.00 | 80 | 1008.9 |
| 20260505084436 | 57 | 117 | 0.0 | 0.0 | 0.00 | 0.00 | 0.00 | 79 | 1008.9 |
| 20260505083934 | 57 | 117 | 0.0 | 0.0 | 0.00 | 0.00 | 0.00 | 79 | 1008.9 |
| 20260505083438 | 58 | 117 | 0.0 | 0.0 | 0.00 | 0.00 | 0.00 | 78 | 1008.8 |
| 20260505082938 | 58 | 117 | 0.0 | 0.0 | 0.00 | 0.00 | 0.00 | 78 | 1008.8 |
| 20260505082703 | 58 | 117 | 0.0 | 0.0 | 0.00 | 0.00 | 0.00 | 78 | 1008.7 |
| 20260505081920 | 58 | 117 | 0.0 | 0.0 | 0.00 | 0.00 | 0.00 | 78 | 1008.7 |
| 20260505081419 | 58 | 117 | 0.0 | 0.0 | 0.00 | 0.00 | 0.00 | 78 | 1008.7 |
| 20260505080918 | 58 | 117 | 0.0 | 0.0 | 0.00 | 0.00 | 0.00 | 77 | 1008.8 |
| 20260505080651 | 59 | 117 | 0.0 | 0.0 | 0.00 | 0.00 | 0.00 | 76 | 1008.7 |
| 20260505075919 | 60 | 117 | 0.0 | 0.0 | 0.00 | 0.00 | 0.00 | 75 | 1008.7 |
| 20260505075419 | 60 | 117 | 0.0 | 0.0 | 0.00 | 0.00 | 0.00 | 74 | 1008.7 |
| 20260505074919 | 60 | 117 | 0.0 | 0.0 | 0.00 | 0.00 | 0.00 | 73 | 1008.7 |
| 20260505074421 | 61 | 117 | 0.0 | 0.0 | 0.00 | 0.00 | 0.00 | 73 | 1008.7 |
| 20260505074153 | 61 | 117 | 0.0 | 0.0 | 0.00 | 0.00 | 0.00 | 73 | 1008.6 |
| 20260505073416 | 62 | 117 | 0.0 | 0.0 | 0.00 | 0.00 | 0.00 | 71 | 1008.6 |
| 20260505072904 | 62 | 117 | 0.0 | 0.0 | 0.00 | 0.00 | 0.00 | 71 | 1008.6 |
| 20260505072352 | 62 | 117 | 0.0 | 0.0 | 0.00 | 0.00 | 0.00 | 69 | 1008.5 |
| 20260505071840 | 62 | 117 | 0.0 | 0.0 | 0.00 | 0.00 | 0.00 | 68 | 1008.5 |
| 20260505071328 | 62 | 117 | 0.0 | 0.0 | 0.00 | 0.00 | 0.00 | 69 | 1008.5 |
| 20260505071048 | 63 | 117 | 0.0 | 0.0 | 0.00 | 0.00 | 0.00 | 69 | 1008.5 |
| 20260505070301 | 63 | 117 | 0.0 | 0.0 | 0.00 | 0.00 | 0.00 | 68 | 1008.5 |
| 20260505065750 | 63 | 117 | 0.0 | 0.0 | 0.00 | 0.00 | 0.00 | 68 | 1008.5 |
| 20260505065238 | 63 | 117 | 0.0 | 0.0 | 0.00 | 0.00 | 0.00 | 68 | 1008.6 |
| 20260505064725 | 63 | 117 | 0.0 | 0.0 | 0.00 | 0.00 | 0.00 | 68 | 1008.6 |
| 20260505064214 | 62 | 117 | 0.0 | 0.0 | 0.00 | 0.00 | 0.00 | 68 | 1008.7 |
| 20260505063716 | 62 | 117 | 0.0 | 0.0 | 0.00 | 0.00 | 0.00 | 68 | 1008.6 |
| 20260505063214 | 62 | 117 | 0.0 | 0.0 | 0.00 | 0.00 | 0.00 | 68 | 1008.7 |
| 20260505062714 | 62 | 117 | 0.0 | 0.0 | 0.00 | 0.00 | 0.00 | 68 | 1008.7 |
| 20260505062214 | 62 | 117 | 0.0 | 2.0 | 0.00 | 0.00 | 0.00 | 67 | 1008.8 |
| 20260505061716 | 62 | 117 | 0.0 | 2.0 | 0.00 | 0.00 | 0.00 | 68 | 1008.9 |
| 20260505061214 | 62 | 117 | 0.0 | 0.0 | 0.00 | 0.00 | 0.00 | 67 | 1008.9 |
| 20260505060714 | 62 | 117 | 0.0 | 0.0 | 0.00 | 0.00 | 0.00 | 67 | 1008.9 |
| 20260505060216 | 62 | 117 | 0.0 | 0.0 | 0.00 | 0.00 | 0.00 | 67 | 1008.8 |
| 20260505055709 | 62 | 117 | 0.0 | 0.0 | 0.00 | 0.00 | 0.00 | 67 | 1008.9 |
| 20260505055206 | 62 | 117 | 0.0 | 0.0 | 0.00 | 0.00 | 0.00 | 67 | 1008.8 |
| 20260505054706 | 62 | 117 | 0.0 | 0.0 | 0.00 | 0.00 | 0.00 | 67 | 1008.8 |
| 20260505054209 | 62 | 117 | 0.0 | 0.0 | 0.00 | 0.00 | 0.00 | 67 | 1008.9 |
| 20260505053938 | 62 | 117 | 0.0 | 0.0 | 0.00 | 0.00 | 0.00 | 67 | 1008.9 |
| 20260505053206 | 62 | 117 | 0.0 | 0.0 | 0.00 | 0.00 | 0.00 | 67 | 1008.9 |
| 20260505052707 | 62 | 117 | 0.0 | 0.0 | 0.00 | 0.00 | 0.00 | 66 | 1009.0 |
| 20260505052204 | 63 | 117 | 0.0 | 0.0 | 0.00 | 0.00 | 0.00 | 66 | 1009.0 |
| 20260505051705 | 63 | 117 | 0.0 | 0.0 | 0.00 | 0.00 | 0.00 | 65 | 1008.9 |
| 20260505051204 | 63 | 117 | 0.0 | 0.0 | 0.00 | 0.00 | 0.00 | 65 | 1008.8 |
| 20260505050933 | 63 | 117 | 0.0 | 0.0 | 0.00 | 0.00 | 0.00 | 65 | 1008.7 |
| 20260505050424 | 63 | 117 | 0.0 | 1.0 | 0.00 | 0.00 | 0.00 | 65 | 1008.7 |
| 20260505041552 | 61 | 117 | 0.0 | 0.0 | 0.00 | 0.00 | 0.00 | 67 | 1008.5 |
| 20260505041046 | 61 | 117 | 0.0 | 0.0 | 0.00 | 0.00 | 0.00 | 66 | 1008.5 |
| 20260505040810 | 61 | 117 | 0.0 | 0.0 | 0.00 | 0.00 | 0.00 | 66 | 1008.5 |
| 20260505040034 | 61 | 117 | 0.0 | 0.0 | 0.00 | 0.00 | 0.00 | 65 | 1008.5 |
| 20260505035520 | 62 | 117 | 0.0 | 0.0 | 0.00 | 0.00 | 0.00 | 65 | 1008.5 |
| 20260505035021 | 62 | 117 | 0.0 | 0.0 | 0.00 | 0.00 | 0.00 | 65 | 1008.5 |
| 20260505034515 | 62 | 117 | 0.0 | 0.0 | 0.00 | 0.00 | 0.00 | 64 | 1008.5 |
| 20260505034004 | 62 | 117 | 0.0 | 0.0 | 0.00 | 0.00 | 0.00 | 64 | 1008.5 |
| 20260505033501 | 62 | 117 | 0.0 | 0.0 | 0.00 | 0.00 | 0.00 | 64 | 1008.5 |
| 20260505032955 | 63 | 117 | 0.0 | 0.0 | 0.00 | 0.00 | 0.00 | 63 | 1008.5 |
| 20260505032444 | 63 | 117 | 0.0 | 1.0 | 0.00 | 0.00 | 0.00 | 62 | 1008.4 |
| 20260505032440 | 63 | 117 | 0.0 | 0.0 | 0.00 | 0.00 | 0.00 | 62 | 1008.5 |
| 20260505031706 | 63 | 117 | 0.0 | 3.0 | 0.00 | 0.00 | 0.00 | 62 | 1008.4 |
| 20260505030929 | 64 | 117 | 0.0 | 7.0 | 0.00 | 0.00 | 0.00 | 61 | 1008.5 |
| 20260505030423 | 64 | 117 | 0.0 | 5.0 | 0.00 | 0.00 | 0.00 | 61 | 1008.4 |
| 20260505025917 | 64 | 117 | 0.0 | 4.0 | 0.00 | 0.00 | 0.00 | 61 | 1008.4 |
| 20260505025410 | 64 | 116 | 1.0 | 8.0 | 0.00 | 0.00 | 0.00 | 61 | 1008.2 |
| 20260505025131 | 64 | 115 | 1.0 | 8.0 | 0.00 | 0.00 | 0.00 | 61 | 1008.1 |
| 20260505024359 | 64 | 147 | 0.0 | 5.0 | 0.00 | 0.00 | 0.00 | 61 | 1008.1 |
| 20260505024123 | 64 | 147 | 0.0 | 6.0 | 0.00 | 0.00 | 0.00 | 61 | 1008.2 |
| 20260505023347 | 64 | 150 | 1.0 | 6.0 | 0.00 | 0.00 | 0.00 | 60 | 1008.1 |
| 20260505022841 | 64 | 126 | 0.0 | 7.0 | 0.00 | 0.00 | 0.00 | 60 | 1008.2 |
| 20260505022327 | 64 | 115 | 1.0 | 7.0 | 0.00 | 0.00 | 0.00 | 60 | 1008.1 |
| 20260505021835 | 64 | 163 | 0.0 | 3.0 | 0.00 | 0.00 | 0.00 | 60 | 1008.2 |
| 20260505021829 | 64 | 163 | 0.0 | 7.0 | 0.00 | 0.00 | 0.00 | 60 | 1008.1 |
| 20260505020816 | 64 | 163 | 0.0 | 2.0 | 0.00 | 0.00 | 0.00 | 60 | 1008.3 |
| 20260505020312 | 64 | 165 | 1.0 | 8.0 | 0.00 | 0.00 | 0.00 | 60 | 1008.3 |
| 20260505015805 | 64 | 165 | 1.0 | 8.0 | 0.00 | 0.00 | 0.00 | 59 | 1008.3 |
| 20260505015259 | 64 | 100 | 1.0 | 7.0 | 0.00 | 0.00 | 0.00 | 59 | 1008.3 |
| 20260505014746 | 64 | 136 | 0.0 | 7.0 | 0.00 | 0.00 | 0.00 | 60 | 1008.2 |
| 20260505014247 | 65 | 143 | 0.0 | 6.0 | 0.00 | 0.00 | 0.00 | 59 | 1008.2 |
| 20260505013741 | 65 | 151 | 0.0 | 6.0 | 0.00 | 0.00 | 0.00 | 59 | 1008.3 |
| 20260505013235 | 65 | 156 | 0.0 | 5.0 | 0.00 | 0.00 | 0.00 | 59 | 1008.4 |
| 20260505012728 | 65 | 132 | 0.0 | 7.0 | 0.00 | 0.00 | 0.00 | 59 | 1008.4 |
| 20260505012218 | 65 | 126 | 0.0 | 7.0 | 0.00 | 0.00 | 0.00 | 59 | 1008.4 |
| 20260505011715 | 65 | 123 | 1.0 | 7.0 | 0.00 | 0.00 | 0.00 | 58 | 1008.3 |
| 20260505011204 | 65 | 122 | 1.0 | 7.0 | 0.00 | 0.00 | 0.00 | 58 | 1008.2 |
| 20260505010929 | 66 | 134 | 0.0 | 6.0 | 0.00 | 0.00 | 0.00 | 58 | 1008.1 |
| 20260505010156 | 66 | 136 | 0.0 | 3.0 | 0.00 | 0.00 | 0.00 | 57 | 1008.0 |
| 20260505005649 | 66 | 136 | 0.0 | 4.0 | 0.00 | 0.00 | 0.00 | 57 | 1007.9 |
| 20260505005145 | 66 | 136 | 0.0 | 4.0 | 0.00 | 0.00 | 0.00 | 56 | 1007.9 |
| 20260505004638 | 67 | 134 | 1.0 | 12.0 | 0.00 | 0.00 | 0.00 | 56 | 1007.9 |
| 20260505004132 | 67 | 136 | 1.0 | 12.0 | 0.00 | 0.00 | 0.00 | 56 | 1007.8 |
| 20260505003627 | 67 | 126 | 1.0 | 8.0 | 0.00 | 0.00 | 0.00 | 56 | 1007.9 |
| 20260505003116 | 67 | 138 | 1.0 | 6.0 | 0.00 | 0.00 | 0.00 | 55 | 1007.9 |
| 20260505002614 | 68 | 142 | 0.0 | 5.0 | 0.00 | 0.00 | 0.00 | 55 | 1007.8 |
| 20260505002102 | 68 | 146 | 0.0 | 4.0 | 0.00 | 0.00 | 0.00 | 54 | 1007.8 |
| 20260505001603 | 69 | 146 | 0.0 | 4.0 | 0.00 | 0.00 | 0.00 | 53 | 1007.8 |
| 20260505001057 | 69 | 149 | 0.0 | 2.0 | 0.00 | 0.00 | 0.00 | 52 | 1007.8 |
| 20260505000546 | 70 | 169 | 0.0 | 1.0 | 0.00 | 0.00 | 0.00 | 51 | 1007.7 |
| 20260505000045 | 70 | 169 | 0.0 | 2.0 | 0.00 | 0.00 | 0.00 | 51 | 1007.7 |
| 20260504235536 | 71 | 169 | 0.0 | 2.0 | 0.00 | 0.00 | 0.00 | 50 | 1007.5 |
| 20260504235033 | 71 | 169 | 0.0 | 3.0 | 0.00 | 0.00 | 0.00 | 50 | 1007.5 |
| 20260504234757 | 71 | 169 | 0.0 | 7.0 | 0.00 | 0.00 | 0.00 | 49 | 1007.5 |
| 20260504234021 | 72 | 169 | 0.0 | 7.0 | 0.00 | 0.00 | 0.00 | 48 | 1007.4 |
| 20260504233515 | 72 | 169 | 0.0 | 3.0 | 0.00 | 0.00 | 0.00 | 49 | 1007.4 |
| 20260504233005 | 72 | 169 | 0.0 | 8.0 | 0.00 | 0.00 | 0.00 | 48 | 1007.4 |
| 20260504232503 | 72 | 169 | 1.0 | 8.0 | 0.00 | 0.00 | 0.00 | 47 | 1007.4 |
| 20260504231957 | 72 | 208 | 1.0 | 6.0 | 0.00 | 0.00 | 0.00 | 49 | 1007.4 |
| 20260504231451 | 73 | 210 | 0.0 | 6.0 | 0.00 | 0.00 | 0.00 | 48 | 1007.4 |
| 20260504230943 | 73 | 198 | 0.0 | 6.0 | 0.00 | 0.00 | 0.00 | 48 | 1007.5 |
| 20260504230437 | 73 | 198 | 0.0 | 6.0 | 0.00 | 0.00 | 0.00 | 48 | 1007.5 |
| 20260504225931 | 73 | 169 | 1.0 | 8.0 | 0.00 | 0.00 | 0.00 | 47 | 1007.5 |